SWA1432 KIND-KORD

Flight info

Callsign SWA1432
Flight time 0h 38m
Altitude 23000
Route MEARZ7 MEARZ BRATN BONNT VEECK5
Aircraft A20N/M-SDE2E3FGHIRWXY/LB1

Departure

Time 2026-05-04 22:31
Airport Indianapolis International Airport (KIND)

Arrival

Time 2026-05-04 23:10
Airport Chicago O'Hare International Airport (KORD)
Time Latitude Longitude Altitude Speed Heading
2026-05-04 22:08 39.71877 -86.29668 785 ft 0 kts 173°
2026-05-04 22:20 39.71876 -86.29667 784 ft 0 kts 173°
2026-05-04 22:20 39.71883 -86.29669 784 ft 0 kts 171°
2026-05-04 22:22 39.71903 -86.29675 784 ft 0 kts 156°
2026-05-04 22:22 39.71910 -86.29679 784 ft 4 kts 148°
2026-05-04 22:23 39.71930 -86.29704 784 ft 4 kts 115°
2026-05-04 22:23 39.71936 -86.29739 783 ft 4 kts 83°
2026-05-04 22:23 39.71926 -86.29771 783 ft 4 kts 43°
2026-05-04 22:23 39.71925 -86.29772 783 ft 0 kts 42°
2026-05-04 22:24 39.71928 -86.29768 783 ft 2 kts 41°
2026-05-04 22:25 39.71961 -86.29740 783 ft 2 kts 31°
2026-05-04 22:25 39.71990 -86.29721 784 ft 7 kts 26°
2026-05-04 22:25 39.72043 -86.29689 785 ft 10 kts 25°
2026-05-04 22:25 39.72097 -86.29650 785 ft 0 kts 37°
2026-05-04 22:27 39.72127 -86.29622 784 ft 8 kts 32°
2026-05-04 22:27 39.72161 -86.29604 784 ft 0 kts 15°
2026-05-04 22:27 39.72165 -86.29603 783 ft 0 kts 13°
2026-05-04 22:27 39.72166 -86.29603 783 ft 0 kts 13°
2026-05-04 22:28 39.72168 -86.29603 783 ft 4 kts
2026-05-04 22:28 39.72198 -86.29620 782 ft 4 kts 321°
2026-05-04 22:28 39.72237 -86.29668 781 ft 11 kts 320°
2026-05-04 22:28 39.72311 -86.29653 781 ft 13 kts 34°
2026-05-04 22:29 39.72382 -86.29565 782 ft 16 kts 44°
2026-05-04 22:29 39.72473 -86.29450 782 ft 20 kts 43°
2026-05-04 22:29 39.72579 -86.29313 787 ft 22 kts 45°
2026-05-04 22:29 39.72635 -86.29239 788 ft 11 kts 45°
2026-05-04 22:30 39.72725 -86.29181 791 ft 0 kts 342°
2026-05-04 22:30 39.72744 -86.29202 791 ft 12 kts 319°
2026-05-04 22:30 39.72773 -86.29363 788 ft 27 kts 231°
2026-05-04 22:30 39.72636 -86.29545 783 ft 49 kts 225°
2026-05-04 22:31 39.72178 -86.30120 778 ft 129 kts 224°
2026-05-04 22:31 39.71421 -86.31103 989 ft 171 kts 224°
2026-05-04 22:31 39.70530 -86.32309 1395 ft 202 kts 225°
2026-05-04 22:31 39.69464 -86.33729 1837 ft 236 kts 224°
2026-05-04 22:32 39.68245 -86.35329 2473 ft 260 kts 224°
2026-05-04 22:32 39.67037 -86.36916 3250 ft 272 kts 225°
2026-05-04 22:32 39.65713 -86.38715 4192 ft 277 kts 226°
2026-05-04 22:32 39.64397 -86.40576 5146 ft 281 kts 228°
2026-05-04 22:33 39.63123 -86.42507 6137 ft 279 kts 234°
2026-05-04 22:33 39.62203 -86.44627 7173 ft 268 kts 248°
2026-05-04 22:33 39.61732 -86.46835 8156 ft 237 kts 261°
2026-05-04 22:33 39.61748 -86.48834 9006 ft 208 kts 277°
2026-05-04 22:34 39.62348 -86.50529 9274 ft 214 kts 305°
2026-05-04 22:34 39.63673 -86.51570 9549 ft 238 kts 336°
2026-05-04 22:34 39.65394 -86.51557 9983 ft 261 kts
2026-05-04 22:34 39.67064 -86.50456 10389 ft 277 kts 28°
2026-05-04 22:35 39.68508 -86.48953 10797 ft 280 kts 33°
2026-05-04 22:35 39.69974 -86.47283 11331 ft 286 kts 34°
2026-05-04 22:35 39.71463 -86.45557 12144 ft 290 kts 34°
2026-05-04 22:35 39.72996 -86.43781 12809 ft 299 kts 35°
2026-05-04 22:36 39.74566 -86.41960 13484 ft 310 kts 35°
2026-05-04 22:36 39.76264 -86.40007 13276 ft 345 kts 35°
2026-05-04 22:36 39.78123 -86.37869 13572 ft 355 kts 36°
2026-05-04 22:36 39.79905 -86.35784 14771 ft 335 kts 35°
2026-05-04 22:37 39.81626 -86.33864 15965 ft 312 kts 25°
2026-05-04 22:37 39.83490 -86.32771 16905 ft 288 kts
2026-05-04 22:37 39.85449 -86.32474 17567 ft 284 kts 355°
2026-05-04 22:37 39.87437 -86.32281 18128 ft 289 kts 355°
2026-05-04 22:38 39.89462 -86.32075 18688 ft 293 kts 355°
2026-05-04 22:38 39.91498 -86.31854 19286 ft 295 kts 356°
2026-05-04 22:38 39.93558 -86.31624 19871 ft 298 kts 356°
2026-05-04 22:38 39.95599 -86.31656 20427 ft 288 kts 341°
2026-05-04 22:39 39.97578 -86.32150 21017 ft 289 kts 340°
2026-05-04 22:39 39.99533 -86.32657 21582 ft 291 kts 340°
2026-05-04 22:39 40.01533 -86.33176 22142 ft 294 kts 340°
2026-05-04 22:39 40.02889 -86.33526 22530 ft 295 kts 340°
2026-05-04 22:40 40.04916 -86.34046 23066 ft 298 kts 340°
2026-05-04 22:40 40.07726 -86.34779 23003 ft 326 kts 340°
2026-05-04 22:40 40.09994 -86.35366 23311 ft 330 kts 341°
2026-05-04 22:40 40.11458 -86.35725 24018 ft 315 kts 341°
2026-05-04 22:41 40.13560 -86.36236 24750 ft 303 kts 340°
2026-05-04 22:41 40.15643 -86.36764 24982 ft 306 kts 340°
2026-05-04 22:41 40.17737 -86.37307 25229 ft 308 kts 340°
2026-05-04 22:41 40.19854 -86.37855 25460 ft 309 kts 340°
2026-05-04 22:42 40.21943 -86.38393 25702 ft 311 kts 340°
2026-05-04 22:42 40.24046 -86.38929 25886 ft 305 kts 340°
2026-05-04 22:42 40.26129 -86.39461 25816 ft 305 kts 340°
2026-05-04 22:42 40.28217 -86.39998 25695 ft 307 kts 340°
2026-05-04 22:43 40.30329 -86.40545 25557 ft 310 kts 340°
2026-05-04 22:43 40.32443 -86.41088 25487 ft 310 kts 340°
2026-05-04 22:43 40.34456 -86.41605 25426 ft 310 kts 340°
2026-05-04 22:43 40.36573 -86.42148 25373 ft 310 kts 340°
2026-05-04 22:44 40.38689 -86.42692 25318 ft 310 kts 340°
2026-05-04 22:44 40.40800 -86.43234 25275 ft 309 kts 340°
2026-05-04 22:44 40.42914 -86.43779 25225 ft 309 kts 340°
2026-05-04 22:44 40.45021 -86.44322 25170 ft 309 kts 340°
2026-05-04 22:45 40.47131 -86.44868 25111 ft 309 kts 340°
2026-05-04 22:45 40.51320 -86.45950 25045 ft 308 kts 340°
2026-05-04 22:45 40.53423 -86.46494 24992 ft 308 kts 340°
2026-05-04 22:46 40.55539 -86.47040 25135 ft 311 kts 340°
2026-05-04 22:46 40.57661 -86.47588 25654 ft 310 kts 340°
2026-05-04 22:46 40.59782 -86.48141 26056 ft 312 kts 340°
2026-05-04 22:46 40.61921 -86.48700 26448 ft 314 kts 340°
2026-05-04 22:47 40.64068 -86.49259 26845 ft 316 kts 340°
2026-05-04 22:47 40.66228 -86.49820 27242 ft 317 kts 340°
2026-05-04 22:47 40.67916 -86.50258 27501 ft 319 kts 340°
2026-05-04 22:47 40.70290 -86.50882 27565 ft 335 kts 340°
2026-05-04 22:48 40.72640 -86.51505 27495 ft 354 kts 341°
2026-05-04 22:48 40.75123 -86.52161 27284 ft 375 kts 341°
2026-05-04 22:48 40.77765 -86.52855 27004 ft 398 kts 342°
2026-05-04 22:48 40.80561 -86.53585 26643 ft 418 kts 342°
2026-05-04 22:49 40.83433 -86.54326 26287 ft 420 kts 343°
2026-05-04 22:49 40.86255 -86.55046 25936 ft 416 kts 343°
2026-05-04 22:49 40.89092 -86.55776 25583 ft 413 kts 343°
2026-05-04 22:49 40.91914 -86.56509 25231 ft 412 kts 343°
2026-05-04 22:50 40.94724 -86.57243 24891 ft 411 kts 343°
2026-05-04 22:50 40.97519 -86.57974 24549 ft 408 kts 343°
2026-05-04 22:50 41.00008 -86.58626 24236 ft 407 kts 343°
2026-05-04 22:50 41.02657 -86.59326 23919 ft 405 kts 342°
2026-05-04 22:51 41.05287 -86.60532 23566 ft 395 kts 328°
2026-05-04 22:51 41.07505 -86.62500 23241 ft 387 kts 315°
2026-05-04 22:51 41.09294 -86.65138 22854 ft 382 kts 303°
2026-05-04 22:51 41.10760 -86.68072 22459 ft 380 kts 302°
2026-05-04 22:52 41.12222 -86.70984 22090 ft 378 kts 302°
2026-05-04 22:52 41.13679 -86.73875 21708 ft 376 kts 302°
2026-05-04 22:52 41.15129 -86.76750 21332 ft 375 kts 302°
2026-05-04 22:52 41.16576 -86.79621 20968 ft 373 kts 302°
2026-05-04 22:53 41.18015 -86.82480 20717 ft 371 kts 302°
2026-05-04 22:53 41.19372 -86.85182 20657 ft 371 kts 302°
2026-05-04 22:53 41.20809 -86.88043 20655 ft 372 kts 302°
2026-05-04 22:53 41.22242 -86.90900 20653 ft 372 kts 302°
2026-05-04 22:54 41.23659 -86.93729 20520 ft 372 kts 302°
2026-05-04 22:54 41.25093 -86.96594 20294 ft 371 kts 302°
2026-05-04 22:54 41.26517 -86.99442 20069 ft 369 kts 302°
2026-05-04 22:54 41.27937 -87.02282 19836 ft 369 kts 302°
2026-05-04 22:55 41.29356 -87.05123 19609 ft 368 kts 302°
2026-05-04 22:55 41.30770 -87.07957 19385 ft 367 kts 303°
2026-05-04 22:55 41.32181 -87.10788 19165 ft 366 kts 303°
2026-05-04 22:55 41.33512 -87.13461 18920 ft 366 kts 303°
2026-05-04 22:56 41.34898 -87.16245 18655 ft 364 kts 303°
2026-05-04 22:56 41.36410 -87.18938 18387 ft 363 kts 309°
2026-05-04 22:56 41.38160 -87.21370 18014 ft 365 kts 315°
2026-05-04 22:56 41.40080 -87.23645 17315 ft 363 kts 316°
2026-05-04 22:57 41.41958 -87.25876 16606 ft 361 kts 316°
2026-05-04 22:57 41.43798 -87.28075 15913 ft 358 kts 316°
2026-05-04 22:57 41.45648 -87.30292 15184 ft 355 kts 316°
2026-05-04 22:57 41.47484 -87.32494 14412 ft 355 kts 316°
2026-05-04 22:58 41.49320 -87.34699 13655 ft 355 kts 317°
2026-05-04 22:58 41.51252 -87.36753 12860 ft 355 kts 323°
2026-05-04 22:58 41.53195 -87.38471 12094 ft 355 kts 324°
2026-05-04 22:58 41.55376 -87.40069 11294 ft 356 kts 334°
2026-05-04 22:59 41.57665 -87.41346 10409 ft 358 kts 335°
2026-05-04 22:59 41.59849 -87.42551 9912 ft 349 kts 334°
2026-05-04 22:59 41.61554 -87.43490 9631 ft 341 kts 334°
2026-05-04 22:59 41.63654 -87.44656 8989 ft 338 kts 334°
2026-05-04 23:00 41.65825 -87.45866 8058 ft 343 kts 334°
2026-05-04 23:00 41.68048 -87.47110 7121 ft 348 kts 333°
2026-05-04 23:00 41.70104 -87.48260 6279 ft 353 kts 333°
2026-05-04 23:00 41.72387 -87.49535 5506 ft 353 kts 332°
2026-05-04 23:01 41.74605 -87.50774 5165 ft 341 kts 333°
2026-05-04 23:01 41.76741 -87.51963 5026 ft 323 kts 332°
2026-05-04 23:01 41.78765 -87.53089 4912 ft 306 kts 331°
2026-05-04 23:01 41.80685 -87.54164 4805 ft 291 kts 331°
2026-05-04 23:02 41.82510 -87.55189 4708 ft 277 kts 330°
2026-05-04 23:02 41.84258 -87.56174 4534 ft 267 kts 330°
2026-05-04 23:02 41.85927 -87.57113 4334 ft 259 kts 329°
2026-05-04 23:02 41.87565 -87.58039 4124 ft 251 kts 329°
2026-05-04 23:03 41.89143 -87.58931 4013 ft 239 kts 329°
2026-05-04 23:03 41.90635 -87.59772 4006 ft 225 kts 329°
2026-05-04 23:03 41.92036 -87.60558 3995 ft 211 kts 328°
2026-05-04 23:03 41.93354 -87.61301 3848 ft 205 kts 328°
2026-05-04 23:04 41.94665 -87.62051 3601 ft 204 kts 328°
2026-05-04 23:04 41.95970 -87.62800 3350 ft 204 kts 328°
2026-05-04 23:04 41.97285 -87.63552 3094 ft 204 kts 328°
2026-05-04 23:04 41.98515 -87.64249 2940 ft 199 kts 328°
2026-05-04 23:05 41.99776 -87.64961 2813 ft 196 kts 327°
2026-05-04 23:05 42.01064 -87.65850 3195 ft 217 kts 316°
2026-05-04 23:05 42.02047 -87.67320 3842 ft 193 kts 287°
2026-05-04 23:05 42.02190 -87.68874 4138 ft 158 kts 262°
2026-05-04 23:06 42.02080 -87.70366 3947 ft 168 kts 259°
2026-05-04 23:06 42.01845 -87.71998 3682 ft 188 kts 255°
2026-05-04 23:06 42.01519 -87.73713 3499 ft 188 kts 253°
2026-05-04 23:06 42.01199 -87.75404 3171 ft 190 kts 256°
2026-05-04 23:07 42.00938 -87.77130 3012 ft 179 kts 256°
2026-05-04 23:07 42.00719 -87.78696 2747 ft 162 kts 256°
2026-05-04 23:07 42.00546 -87.80120 2449 ft 148 kts 257°
2026-05-04 23:07 42.00427 -87.81461 2152 ft 141 kts 261°
2026-05-04 23:08 42.00354 -87.82739 1833 ft 136 kts 261°
2026-05-04 23:08 42.00299 -87.83926 1596 ft 133 kts 264°
2026-05-04 23:08 42.00292 -87.85179 1326 ft 135 kts 265°
2026-05-04 23:08 42.00300 -87.86410 1151 ft 127 kts 263°
2026-05-04 23:09 42.00301 -87.87555 1019 ft 130 kts 263°
2026-05-04 23:09 42.00300 -87.88795 850 ft 128 kts 262°
2026-05-04 23:09 42.00270 -87.90030 703 ft 130 kts 263°
2026-05-04 23:09 42.00252 -87.91070 676 ft 62 kts 271°
2026-05-04 23:10 42.00278 -87.91439 670 ft 43 kts 273°
2026-05-04 23:10 42.00280 -87.91904 674 ft 57 kts 269°
2026-05-04 23:10 42.00283 -87.92124 680 ft 16 kts 269°
2026-05-04 23:10 42.00261 -87.92330 679 ft 30 kts 252°
2026-05-04 23:11 42.00244 -87.92389 680 ft 0 kts 245°
2026-05-04 23:11 42.00224 -87.92444 680 ft 16 kts 244°
2026-05-04 23:11 42.00145 -87.92621 676 ft 26 kts 242°
2026-05-04 23:11 42.00073 -87.92661 676 ft 31 kts 168°
2026-05-04 23:12 41.99855 -87.92682 672 ft 31 kts 189°
2026-05-04 23:12 41.99661 -87.92789 674 ft 30 kts 227°
2026-05-04 23:12 41.99547 -87.92964 676 ft 19 kts 236°
2026-05-04 23:12 41.99469 -87.93100 676 ft 20 kts 222°
2026-05-04 23:13 41.99336 -87.93141 675 ft 19 kts 180°
2026-05-04 23:13 41.99211 -87.93140 678 ft 18 kts 179°
2026-05-04 23:13 41.99082 -87.93139 677 ft 19 kts 180°
2026-05-04 23:13 41.98939 -87.93146 677 ft 22 kts 181°
2026-05-04 23:14 41.98784 -87.93144 680 ft 23 kts 179°
2026-05-04 23:14 41.98611 -87.93146 679 ft 24 kts 179°
2026-05-04 23:14 41.98561 -87.93145 679 ft 2 kts 179°
2026-05-04 23:14 41.98558 -87.93145 679 ft 0 kts 179°
2026-05-04 23:16 41.98534 -87.93144 680 ft 13 kts 180°
2026-05-04 23:16 41.98477 -87.93144 680 ft 20 kts 180°
2026-05-04 23:16 41.98382 -87.93147 681 ft 6 kts 181°
2026-05-04 23:16 41.98294 -87.93084 678 ft 23 kts 105°
2026-05-04 23:17 41.98276 -87.92788 674 ft 40 kts 89°
2026-05-04 23:17 41.98276 -87.92371 667 ft 46 kts 85°
2026-05-04 23:17 41.98287 -87.91949 668 ft 43 kts 85°
2026-05-04 23:17 41.98290 -87.91546 669 ft 44 kts 88°
2026-05-04 23:18 41.98291 -87.91211 666 ft 8 kts 90°
2026-05-04 23:18 41.98290 -87.91186 666 ft 8 kts 91°
2026-05-04 23:18 41.98284 -87.91081 663 ft 1 kts 136°
2026-05-04 23:18 41.98243 -87.91080 663 ft 17 kts 206°
2026-05-04 23:19 41.98163 -87.91207 665 ft 18 kts 218°
2026-05-04 23:19 41.98096 -87.91260 666 ft 1 kts 211°